Regional Weather Roundup
Issued by NWS

Home | Current Version | Previous Version | Graphics & Text | Print | Product List | Glossary On
Versions: 1 2 3 4 5 6 7 8 9 10 11 12 13 14 15 16 17 18 19 20 21 22 23 24 25 26 27 28 29 30 31 32 33 34 35 36 37 38 39 40 41 42 43 44 45 46 47 48 49 50
451
ASUS43 KOAX 211502
RWRNE

WEATHER ROUNDUP FOR NEBRASKA
NATIONAL WEATHER SERVICE OMAHA NE
1000 AM CDT MON MAY 21 2018

NOTES: SATELLITE DATA IS BEING USED TO AUGMENT CLOUD COVER ABOVE
       12000 FEET.
       "FAIR" INDICATES FEW OR NO CLOUDS BELOW 12,000 FEET WITH NO
       SIGNIFICANT WEATHER AND/OR OBSTRUCTIONS TO VISIBILITY.


NEZ001>004-019>022-054>056-211600-
NEBRASKA PANHANDLE

CITY           SKY/WX    TMP DP  RH WIND       PRES   REMARKS
SCOTTSBLUFF    CLOUDY    54  51  90 SE6       30.01F
ALLIANCE       SUNNY     59  50  72 S17       30.01F
CHADRON        SUNNY     60  49  66 S14       29.98F
GORDON         FAIR      62  48  60 S9        30.02F
KIMBALL        CLOUDY    48  48  99 SW6       30.04S FOG
SIDNEY         CLOUDY    52  50  93 S10       30.03S
$$

NEZ057>060-069>072-079>082-211600-
SOUTHWEST NEBRASKA

CITY           SKY/WX    TMP DP  RH WIND       PRES   REMARKS
NORTH PLATTE   SUNNY     62  53  72 S6        30.05F
IMPERIAL       SUNNY     60  52  74 S12G21    30.05F
LEXINGTON      CLOUDY    56  55  97 SE3       30.08S
MCCOOK         SUNNY     60  53  77 SE8       30.06S
OGALLALA       SUNNY     61  51  69 S13       30.04S
$$

NEZ005>010-023>029-035>040-094-211600-
NORTH CENTRAL NEBRASKA

CITY           SKY/WX    TMP DP  RH WIND       PRES   REMARKS
VALENTINE      SUNNY     62  49  62 W8        30.03F
AINSWORTH      SUNNY     62  52  69 W8        30.04S
BROKEN BOW     SUNNY     59  54  83 SE3       30.06S
O`NEILL        SUNNY     62  53  73 CALM      30.06F
ORD            CLOUDY    52  51  97 SW5       30.07R
THEDFORD       SUNNY     62  51  66 SW6       30.05F
$$

NEZ041-046>049-061>064-073>077-083>087-211600-
SOUTH CENTRAL NEBRASKA

CITY           SKY/WX    TMP DP  RH WIND       PRES   REMARKS
GRAND ISLAND   SUNNY     59  53  80 VRB3      30.09S
AURORA         PTSUNNY   56  56 100 W6        30.09S
HASTINGS       PTSUNNY   55  54  96 SW3       30.10S
HEBRON         PTSUNNY   60  53  77 CALM      30.10S
HOLDREGE       CLOUDY    52  52 100 S6        30.09S FOG
KEARNEY        MOSUNNY   55  53  93 SW3       30.09S
YORK           PTSUNNY   55  55 100 NW7       30.09S
$$

NEZ011>018-030>034-042>045-211600-
NORTHEAST NEBRASKA

CITY           SKY/WX    TMP DP  RH WIND       PRES   REMARKS
NORFOLK        MOSUNNY   59  51  75 W8        30.06R
ALBION         SUNNY     61  53  77 CALM      30.07R
BLAIR          CLOUDY    57  56  99 SW10      30.06S FOG
COLUMBUS       MOSUNNY   60  52  74 N7        30.08R
FREMONT        CLOUDY    60  57  91 W8        30.06S
TEKAMAH        CLOUDY    58  56  93 W9        30.05S
WAYNE          CLOUDY    57  56  96 W7        30.05F
$$

NEZ050>053-065>068-078-088>093-211600-
SOUTHEAST NEBRASKA

CITY           SKY/WX    TMP DP  RH WIND       PRES   REMARKS
LINCOLN        CLOUDY    60  53  77 N6        30.08S
OMAHA EPPLEY   CLOUDY    60  52  74 CALM      30.05S HAZE
BEATRICE       CLOUDY    59  55  84 W6        30.09S
FALLS CITY     CLOUDY    61  55  81 W8        30.06S
NEBRASKA CITY  CLOUDY    59  58  97 NW7       30.07S
PLATTSMOUTH    CLOUDY    58  57  96 W7        30.06S
$$

NEZ044-045-051>053-067-211600-
OMAHA AREA

CITY           SKY/WX    TMP DP  RH WIND       PRES   REMARKS
OMAHA EPPLEY   CLOUDY    60  52  74 CALM      30.05S HAZE
BLAIR          CLOUDY    57  56  99 SW10      30.06S FOG
FREMONT        CLOUDY    60  57  91 W8        30.06S
MILLARD        CLOUDY    59  56  89 NW8       30.06S
OFFUTT AFB     CLOUDY    60  58  92 W7        30.04F
PLATTSMOUTH    CLOUDY    58  57  96 W7        30.06S
WAHOO          CLOUDY    58  53  84 NW5       30.07S
$$




USA.gov is the U.S. government's official web portal to all federal, state and local government web resources and services.